Location: Andrest
(43.3200°N, 0.0641°E)
Time: 14:27:29
(UTC+00:00)

Cosmos 1933 Rocket - Pass Details

Date: 01 December 2020
Orbit: 605 x 631 km, 82.5° (Epoch: 25 January)

Event Time Altitude Azimuth Distance (km) Brightness Sun altitude
Rises 17:37:10 0° 356° (N) 2,935 6.9 -12.8°
Reaches altitude 10° 17:39:29 10° 2° (N) 2,021 6.0 -13.2°
Maximum altitude 17:43:50 50° 78° (ENE) 804 3.7 -14.0°
Drops below altitude 10° 17:48:09 10° 155° (SSE) 1,999 6.1 -14.7°
Sets 17:50:26 0° 160° (SSE) 2,898 7.0 -15.1°
